Lid_Strength_Index
4 4 4 4 4 4 4 4 4 4 4 4 4 3 3 3 3 2 2 2 2 2 1 2 2 1 1 0 0 0 0 1
5 5 5 5 5 5 5 5 5 5 5 5 4 4 3 3 2 2 2 2 2 2 2 2 2 2 2 2 2 2 1 1
5 5 5 5 5 5 6 6 5 4 4 4 3 3 3 3 3 3 3 3 3 3 3 3 3 3 4 3 3 4 4 3
5 5 4 5 5 4 4 4 4 4 4 4 4 4 4 4 4 4 4 5 5 5 6 6 6 6 8 8 7 6 6 6
5 5 5 5 5 4 5 5 4 5 5 5 5 5 6 6 6 6 7 7 7 8 8 8 8 7 8 9 8 6 5 5
5 5 5 5 5 5 5 5 6 6 6 6 6 7 7 8 8 8 8 9 9 9 9 8 8 7 9 9 8 6 5 5
6 5 6 5 6 6 6 6 6 6 7 7 7 9 9 9 9 9 9 9 9 8 8 8 8 7 8 8 7 5 5 5
6 6 6 6 6 6 7 7 7 8 8 10 9 8 9 8 8 8 8 8 8 8 8 6 6 6 7 8 7 6 4 4
6 6 7 7 8 8 9 9 10 12 10 9 8 8 8 8 8 8 7 7 7 6 6 6 5 5 5 8 8 5 5 5
8 9 9 9 9 9 10 13 12 10 10 9 9 9 8 8 7 6 5 6 6 5 6 6 5 4 5 6 7 8 6 3
10 11 11 10 10 13 14 13 11 10 10 10 9 8 7 7 6 5 6 6 6 5 4 5 6 4 3 6 7 7 8 6
11 11 11 14 14 14 13 11 11 11 12 11 9 8 7 6 5 5 4 5 5 5 5 5 4 3 4 4 4 4 6 6
11 13 15 15 14 14 13 12 12 12 12 11 9 7 6 5 6 6 6 4 5 6 6 4 5 6 5 7 8 7 5 4
15 15 15 16 15 14 13 12 12 13 13 12 10 8 6 6 7 7 7 7 7 8 9 9 6 7 9 9 10 11 10 9
15 16 16 15 15 15 14 14 13 13 13 13 11 9 6 7 7 6 6 4 6 7 8 10 10 10 11 11 10 11 11 8
15 16 16 16 15 14 14 15 15 14 14 13 11 9 7 6 6 6 5 4 5 3 6 8 9 11 10 10 10 8 3 5
15 16 16 16 15 15 14 15 15 15 14 13 12 10 7 6 6 5 5 4 5 4 5 7 6 9 9 9 9 3 3 3
16 17 16 15 16 15 15 14 14 15 14 14 14 12 9 6 5 5 5 5 5 5 5 6 6 5 6 6 4 5 4 2
15 15 15 15 15 14 14 14 14 15 15 15 14 13 11 8 6 5 5 4 4 5 4 6 13 5 4 5 4 4 4 2
15 15 15 14 15 14 14 15 14 14 15 15 15 15 14 12 10 7 6 6 5 5 4 4 11 4 4 5 4 4 4 2